SL-16 R/B (26070 NORAD) Tracking and Keplerian Element Data

This shows tracking and keplerian element data for the satellite.

Feedback or suggestion? Click here.




ElementValue
Catalog26070
NameSL-16 R/B
Epoch Orbit13431
Epoch Day15.8154651
Epoch Year2022
RAAN39.9815
Inclination71.0021
Eccentricity0.0017969
Argument of Perigee319.7161
Mean Anonmoly40.2629
Mean Motion14.1547471
Decay Rate2.5E-06
L11 26070U 00006B 22015.81546510 .00000250 00000+0 15240-3 0 9992
L22 26070 71.0021 39.9815 0017969 319.7161 40.2629 14.15474710134312

Live tracking and technical data element details for SL-16 R/B (NORAD 26070). SL-16 R/B can be tracked NOW for your location showing map with azimuth and elevation plus other details from your city location.

Track the satellite on the map from your city or location and see movement details for azimuth, elevation, latitude, longitude, range, height, and movement on the map or in text.







IsCatalogInMostPopularTable: catalog: 26070, numindb: 126
Update: records affected: 1



GetName: 26070 SL-16 R/B

Hit Count: updated at: Mon, 17 Jan 2022 01:05:19 GMT